Baku, Azerbaijan

12:14 PM +04 on June 21, 2018 (GMT +0400)
Bina

Weather History for UBBB - March, 2018

Change the Weather History Date:

Wednesday, March 14, 2018

  Actual Average Record
Temperature  
Mean Temperature 40 °F -  
Max Temperature 46 °F - - ()
Min Temperature 34 °F - - ()
Degree Days  
Heating Degree Days 25    
Moisture  
Dew Point 37 °F    
Average Humidity 89    
Maximum Humidity 100    
Minimum Humidity 76    
Precipitation  
Precipitation 0.08 in - - ()
Sea Level Pressure  
Sea Level Pressure 30.15 in    
Wind  
Wind Speed 8 mph ()    
Max Wind Speed 18 mph    
Max Gust Speed -    
Visibility 4.4 miles    
Events Rain    
T = Trace of Precipitation, MM = Missing Value Source: Averaged Metar Reports

Daily Weather History Graph

Daily Weather History Graph

Search for Another Location

Airport or City:

Astronomy

Mar. 14, 2018 Rise Set
Actual Time 6:53 AM +04 6:45 PM +04
Civil Twilight 6:26 AM +04 7:12 PM +04
Nautical Twilight 5:54 AM +04 7:43 PM +04
Astronomical Twilight 5:22 AM +04 8:15 PM +04
Moon 5:15 AM +04 (3/14) 3:40 PM +04 (3/14)
Length of Visible Light 12h 45m
Length of Day
11h 51m
Waning Crescent, 10% of the Moon is Illuminated
Mar 14
Waning Crescent
Mar 17
New
Mar 24
First Quarter
Mar 31
Full
Apr 8
Last Quarter

Hourly Weather History & Observations

Time (+04) Temp. Windchill Dew Point Humidity Pressure Visibility Wind Dir Wind Speed Gust Speed Precip Events Conditions
12:00 AM 35.6 °F 29.9 °F 32.0 °F 87% 30.27 in 6.2 mi ENE 6.9 mph - N/A   Overcast
12:30 AM 35.6 °F 29.2 °F 30.2 °F 81% 30.24 in 6.2 mi ENE 8.1 mph - N/A   Overcast
1:00 AM 35 °F - 30 °F 77% 30.25 in 6 mi NE 4.5 mph - - Rain Light Rain
1:00 AM 35.6 °F 29.9 °F 30.2 °F 81% 30.24 in 6.2 mi ENE 6.9 mph - N/A   Overcast
1:30 AM 35.6 °F 29.9 °F 30.2 °F 81% 30.24 in 6.2 mi ENE 6.9 mph - N/A   Overcast
2:00 AM 35.6 °F 30.7 °F 30.2 °F 81% 30.24 in 6.2 mi ENE 5.8 mph - N/A   Overcast
2:30 AM 35.6 °F 29.9 °F 30.2 °F 81% 30.24 in 6.2 mi ENE 6.9 mph - N/A   Overcast
3:00 AM 35.6 °F 30.7 °F 30.2 °F 81% 30.21 in 6.2 mi ENE 5.8 mph - N/A   Overcast
3:30 AM 35.6 °F 31.7 °F 30.2 °F 81% 30.21 in 6.2 mi ENE 4.6 mph - N/A   Overcast
4:00 AM 35 °F - 30 °F 76% 30.21 in 6 mi Calm Calm - -   Partly Cloudy
4:00 AM 35.6 °F 31.7 °F 30.2 °F 81% 30.21 in 6.2 mi East 4.6 mph - N/A   Overcast
4:30 AM 35.6 °F 32.8 °F 30.2 °F 81% 30.21 in 6.2 mi ESE 3.5 mph - N/A   Overcast
5:00 AM 35.6 °F 31.7 °F 32.0 °F 87% 30.21 in 6.2 mi SE 4.6 mph - N/A   Overcast
5:30 AM 35.6 °F 30.7 °F 32.0 °F 87% 30.18 in 6.2 mi ESE 5.8 mph - N/A   Overcast
6:00 AM 35.6 °F 30.7 °F 32.0 °F 87% 30.18 in 6.2 mi ESE 5.8 mph - N/A Rain Light Rain
6:30 AM 35.6 °F 29.2 °F 33.8 °F 93% 30.18 in 6.2 mi ESE 8.1 mph - N/A Rain Light Rain
7:00 AM 36 °F - 32 °F 81% 30.19 in 6 mi East 6.7 mph - -   Overcast
7:00 AM 35.6 °F 29.9 °F 33.8 °F 93% 30.18 in 6.2 mi ESE 6.9 mph - N/A Rain Light Rain
7:30 AM 35.6 °F 29.9 °F 33.8 °F 93% 30.18 in 6.2 mi ESE 6.9 mph - N/A   Overcast
8:00 AM 37.4 °F 32.1 °F 33.8 °F 87% 30.18 in 6.2 mi ESE 6.9 mph - N/A Rain Light Rain
8:30 AM 37.4 °F 31.4 °F 35.6 °F 93% 30.18 in 6.2 mi ESE 8.1 mph - N/A Rain Light Rain
9:00 AM 39.2 °F 32.0 °F 35.6 °F 87% 30.18 in 6.2 mi SE 11.5 mph - N/A Rain Light Rain
9:30 AM 39.2 °F 32.5 °F 35.6 °F 87% 30.18 in 6.2 mi ESE 10.4 mph - N/A Rain Light Rain
10:00 AM 39 °F - 35 °F 79% 30.20 in 6 mi ENE 11.2 mph - - Rain Light Rain
10:00 AM 39.2 °F 31.2 °F 35.6 °F 87% 30.18 in 6.2 mi ESE 13.8 mph - N/A   Overcast
10:30 AM 41.0 °F 33.9 °F 35.6 °F 81% 30.18 in 6.2 mi SE 12.7 mph - N/A Rain Light Rain
11:00 AM 41.0 °F 33.5 °F 37.4 °F 87% 30.18 in 6.2 mi SE 13.8 mph - N/A   Overcast
11:30 AM 41.0 °F 33.5 °F 37.4 °F 87% 30.18 in 6.2 mi SE 13.8 mph - N/A Rain Light Rain
12:00 PM 41.0 °F 33.9 °F 37.4 °F 87% 30.18 in 6.2 mi SE 12.7 mph - N/A Rain Light Rain
12:30 PM 41.0 °F 33.9 °F 39.2 °F 93% 30.15 in 5.0 mi SE 12.7 mph - N/A Rain Light Rain
1:00 PM 41 °F - 38 °F 86% 30.16 in 2 mi East 6.7 mph - - Rain Light Rain
1:00 PM 41.0 °F 33.1 °F 39.2 °F 93% 30.15 in 2.5 mi SE 15.0 mph - N/A Rain Light Rain
1:30 PM 41.0 °F 34.3 °F 39.2 °F 93% 30.15 in 2.5 mi ESE 11.5 mph - N/A   Light Drizzle
2:00 PM 41.0 °F 33.5 °F 39.2 °F 93% 30.12 in 2.5 mi ESE 13.8 mph - N/A   Light Drizzle
2:30 PM 41.0 °F 33.5 °F 39.2 °F 93% 30.12 in 3.1 mi ESE 13.8 mph - N/A   Light Drizzle
3:00 PM 41.0 °F 33.9 °F 39.2 °F 93% 30.12 in 3.1 mi ESE 12.7 mph - N/A   Light Drizzle
3:30 PM 41.0 °F 33.9 °F 39.2 °F 93% 30.12 in 2.5 mi ESE 12.7 mph - N/A   Light Drizzle
4:00 PM 41 °F - 39 °F 90% 30.12 in 1 mi East 8.9 mph - - Rain Light Drizzle
4:00 PM 41.0 °F 33.9 °F 39.2 °F 93% 30.12 in 2.5 mi ESE 12.7 mph - N/A   Light Drizzle
4:30 PM 41.0 °F 33.1 °F 41.0 °F 100% 30.09 in 2.2 mi ESE 15.0 mph - N/A   Light Drizzle
5:00 PM 41.0 °F 33.5 °F 41.0 °F 100% 30.09 in - ESE 13.8 mph - N/A   Light Drizzle
5:30 PM 42.8 °F 35.8 °F 41.0 °F 93% 30.09 in 1.7 mi ESE 13.8 mph - N/A   Light Drizzle
6:00 PM 42.8 °F 36.2 °F 41.0 °F 93% 30.09 in 1.8 mi ESE 12.7 mph - N/A   Light Drizzle
6:30 PM 42.8 °F 37.0 °F 42.8 °F 100% 30.09 in 1.9 mi SE 10.4 mph - N/A   Light Drizzle
7:00 PM 43 °F - 41 °F 90% 30.10 in 1 mi East 8.9 mph - - Rain Light Drizzle
7:00 PM 44.6 °F 37.4 °F 42.8 °F 93% 30.09 in 1.9 mi SE 16.1 mph - N/A   Light Drizzle
7:30 PM 44.6 °F 36.9 °F 42.8 °F 93% 30.09 in - SE 18.4 mph - N/A Rain Light Rain
8:00 PM 44.6 °F 36.9 °F 42.8 °F 93% 30.09 in 1.9 mi SE 18.4 mph - N/A Rain Light Rain
8:30 PM 44.6 °F 36.9 °F 44.6 °F 100% 30.09 in 2.5 mi SSE 18.4 mph - N/A Rain Light Rain
9:00 PM 44.6 °F 37.2 °F 44.6 °F 100% 30.09 in 2.5 mi SSE 17.3 mph - N/A Rain Light Rain
9:30 PM 44.6 °F 36.9 °F 44.6 °F 100% 30.09 in 2.5 mi SSE 18.4 mph - N/A Rain Light Rain
10:00 PM 45 °F - 43 °F 91% 30.09 in 1 mi ESE 13.4 mph - - Rain Light Rain
10:00 PM 44.6 °F 37.2 °F 44.6 °F 100% 30.09 in 2.5 mi SSE 17.3 mph - N/A Rain Light Rain
10:30 PM 44.6 °F 37.8 °F 44.6 °F 100% 30.06 in 2.5 mi SSE 15.0 mph - N/A Rain Light Rain
11:00 PM 46.4 °F 40.1 °F 44.6 °F 93% 30.06 in 2.5 mi SSE 15.0 mph - N/A Rain Light Rain
11:30 PM 46.4 °F 39.8 °F 46.4 °F 100% 30.06 in 2.5 mi South 16.1 mph - N/A Rain Light Rain